This is the latest recevied weather packets stored in our database for station/object YO4ISC-13. If no packets are shown the sender has not sent any weather packets the latest 1 day(s).
| Time | Temp. | Humidity | Pressure | Rain* | Wind** | Luminosity | Snow |
|---|---|---|---|---|---|---|---|
| 1778014801 | 7.78° C | 85% | 1018 hPa | - | 0.45 m/s, 12° | - | - |
| 1778014202 | 8.33° C | 84% | 1018 hPa | - | 0 m/s | - | - |
| 1778013601 | 8.33° C | 84% | 1018 hPa | - | 0.45 m/s, 6° | - | - |
| 1778013002 | 8.33° C | 84% | 1018 hPa | - | 0.89 m/s, 353° | - | - |
| 1778012401 | 8.33° C | 84% | 1018 hPa | - | 0.45 m/s, 6° | - | - |
| 1778011802 | 8.89° C | 84% | 1018 hPa | - | 0 m/s | - | - |
| 1778011202 | 8.89° C | 85% | 1018 hPa | - | 0.45 m/s, 353° | - | - |
| 1778010602 | 8.89° C | 85% | 1018 hPa | - | 0.89 m/s, 89° | - | - |
| 1778010002 | 9.44° C | 85% | 1018 hPa | - | 0.89 m/s, 45° | - | - |
| 1778009401 | 9.44° C | 85% | 1018 hPa | - | 0.45 m/s, 3° | - | - |
| 1778008802 | 10° C | 86% | 1018 hPa | - | 0.45 m/s, 33° | - | - |
| 1778008201 | 10° C | 86% | 1018 hPa | - | 0 m/s | - | - |
| 1778007602 | 10° C | 86% | 1018 hPa | - | 0.89 m/s, 148° | - | - |
| 1778007001 | 10.56° C | 85% | 1018 hPa | - | 0 m/s | - | - |
| 1778006402 | 10.56° C | 85% | 1018 hPa | - | 0.89 m/s, 132° | - | - |
| 1778005802 | 10.56° C | 86% | 1018 hPa | - | 0 m/s | - | - |
| 1778005201 | 10.56° C | 86% | 1018 hPa | - | 0.45 m/s, 145° | - | - |
| 1778004602 | 11.11° C | 85% | 1018 hPa | - | 0 m/s | - | - |
| 1778004001 | 11.11° C | 84% | 1018 hPa | - | 0.89 m/s, 155° | - | - |
| 1778003402 | 11.67° C | 83% | 1018 hPa | - | 0 m/s | - | - |
| 1778002802 | 11.67° C | 82% | 1017 hPa | - | 0.45 m/s, 151° | - | - |
| 1778002201 | 11.67° C | 81% | 1017 hPa | - | 0.89 m/s, 180° | - | - |
| 1778001602 | 12.22° C | 80% | 1017 hPa | - | 0.89 m/s, 150° | - | - |
| 1778001001 | 12.22° C | 79% | 1017 hPa | - | 1.34 m/s, 165° | - | - |
| 1778000402 | 12.78° C | 78% | 1017 hPa | - | 1.79 m/s, 176° | - | - |
* Rain since midnight (hover to see other rain measurements)
** Current wind speed in m/s (hover to see current wind gust speed)